Massena, NY

6:41 AM EDT on April 23, 2017 (GMT -0400)
Massena International-Richards

Weather History for KMSS - July, 2012

Change the Weather History Date:

Monday, July 9, 2012

  Actual Average Record
Temperature  
Mean Temperature 64 °F 69 °F  
Max Temperature 78 °F 80 °F 96 °F (1988)
Min Temperature 49 °F 58 °F 44 °F (1969)
Degree Days  
Heating Degree Days 2 1  
Month to date heating degree days 9  
Since 1 June heating degree days 105  
Since 1 July heating degree days 9  
Cooling Degree Days 0 5  
Month to date cooling degree days 53 42  
Year to date cooling degree days 205 131  
Since 1 June cooling degree days 167 117  
Growing Degree Days 14 (Base 50)    
Moisture  
Dew Point 49 °F    
Average Humidity 64    
Maximum Humidity 96    
Minimum Humidity 31    
Precipitation  
Precipitation 0.00 in 0.11 in 1.47 in (2016)
Month to date precipitation 0.14 1.02  
Year to date precipitation 13.85 16.47  
Sea Level Pressure  
Sea Level Pressure 29.99 in    
Wind  
Wind Speed 4 mph (NNW)    
Max Wind Speed 15 mph    
Max Gust Speed 22 mph    
Visibility 9 miles    
Events      
T = Trace of Precipitation, MM = Missing Value Source: NWS Daily Summary

Daily Weather History Graph

Daily Weather History Graph

Search for Another Location

Airport or City:

Trip Planner

Search our weather history database for the weather conditions in past years. The results will help you decide how hot, cold, wet, or windy it might be!

Date:

Astronomy

Jul. 09, 2012 Rise Set
Actual Time 5:22 AM EDT 8:46 PM EDT
Civil Twilight 4:46 AM EDT 9:22 PM EDT
Nautical Twilight 3:58 AM EDT 10:10 PM EDT
Astronomical Twilight 2:57 AM EDT 11:10 PM EDT
Moon 11:40 PM EDT (7/9) 12:07 PM EDT (7/9)
Length of Visible Light 16h 36m
Length of Day
15h 23m
Waning Gibbous, 64% of the Moon is Illuminated
Jul 9
Waning Gibbous
Jul 10
Last Quarter
Jul 19
New
Jul 26
First Quarter
Aug 1
Full

Hourly Weather History & Observations

Time (EDT) Temp. Dew Point Humidity Pressure Visibility Wind Dir Wind Speed Gust Speed Precip Events Conditions
12:53 AM 57.9 °F 51.1 °F 78% 29.93 in 9.0 mi Calm Calm - N/A   Clear
1:53 AM 54.0 °F 52.0 °F 93% 29.94 in 10.0 mi Calm Calm - N/A   Clear
2:53 AM 54.0 °F 52.0 °F 93% 29.94 in 10.0 mi Calm Calm - N/A   Clear
3:14 AM 51.8 °F 51.8 °F 100% 29.94 in 1.8 mi Calm Calm - N/A   Clear
3:16 AM 51.8 °F 51.8 °F 100% 29.94 in 0.8 mi Calm Calm - N/A   Clear
3:48 AM 51.8 °F 50.0 °F 94% 29.95 in 1.0 mi Calm Calm - N/A   Clear
3:53 AM 51.1 °F 50.0 °F 96% 29.95 in 2.5 mi Calm Calm - N/A   Clear
4:00 AM 51.8 °F 50.0 °F 94% 29.95 in 8.0 mi Calm Calm - N/A   Clear
4:53 AM 50.0 °F 48.9 °F 96% 29.96 in 10.0 mi Calm Calm - N/A   Clear
5:53 AM 52.0 °F 48.9 °F 89% 29.99 in 7.0 mi North 3.5 mph - N/A   Clear
6:53 AM 60.1 °F 51.1 °F 72% 30.01 in 10.0 mi Calm Calm - N/A   Clear
7:53 AM 64.0 °F 50.0 °F 60% 30.03 in 10.0 mi NNW 4.6 mph - N/A   Clear
8:53 AM 66.0 °F 48.0 °F 52% 30.04 in 10.0 mi Variable 4.6 mph - N/A   Clear
9:53 AM 68.0 °F 46.0 °F 45% 30.04 in 10.0 mi NNW 8.1 mph - N/A   Clear
10:53 AM 70.0 °F 43.0 °F 38% 30.03 in 10.0 mi NW 11.5 mph - N/A   Clear
11:53 AM 72.0 °F 45.0 °F 38% 30.02 in 10.0 mi North 12.7 mph 18.4 mph N/A   Clear
12:53 PM 73.9 °F 46.0 °F 37% 30.01 in 10.0 mi North 11.5 mph - N/A   Clear
1:53 PM 75.0 °F 45.0 °F 34% 30.01 in 10.0 mi NW 10.4 mph 17.3 mph N/A   Clear
2:53 PM 75.9 °F 46.9 °F 36% 30.00 in 10.0 mi North 9.2 mph - N/A   Clear
3:53 PM 77.0 °F 46.0 °F 33% 29.99 in 10.0 mi North 6.9 mph - N/A   Partly Cloudy
4:53 PM 75.9 °F 46.0 °F 35% 29.99 in 10.0 mi WNW 6.9 mph - N/A   Clear
5:53 PM 77.0 °F 44.1 °F 31% 29.99 in 10.0 mi Calm Calm - N/A   Mostly Cloudy
6:53 PM 75.0 °F 46.9 °F 37% 29.98 in 10.0 mi SSW 3.5 mph - N/A   Partly Cloudy
7:53 PM 73.4 °F 50.0 °F 44% 29.98 in 10.0 mi Calm Calm - N/A   Mostly Cloudy
8:53 PM 64.0 °F 53.1 °F 67% 29.99 in 10.0 mi Calm Calm - N/A   Clear
9:53 PM 61.0 °F 53.1 °F 75% 29.99 in 10.0 mi Calm Calm - N/A   Clear
10:53 PM 57.2 °F 51.8 °F 82% 30.00 in 10.0 mi Calm Calm - N/A   Clear
11:53 PM 55.9 °F 54.0 °F 93% 30.00 in 10.0 mi Calm Calm - N/A   Clear